Miscellaneous Local Product
Issued by NWS Hastings, NE

Home | Current Version | Previous Version | Text Only | Print | Product List | Glossary Off
Versions: 1 2 3 4 5 6 7 8 9 10 11 12 13 14 15 16 17 18 19 20 21 22 23 24 25 26 27 28 29 30 31 32 33 34 35 36 37 38 39 40 41 42 43 44 45 46 47 48 49 50

000
AXUS43 KGID 242302
MISGRI

GID CWA HOURLY WEATHER ROUNDUP
NATIONAL WEATHER SERVICE HASTINGS NE
500 PM CST SAT JAN 24 2015

NOTE: "FAIR" INDICATES FEW OR NO CLOUDS BELOW 12,000 FEET WITH NO
SIGNIFICANT WEATHER AND/OR OBSTRUCTIONS TO VISIBILITY.

...SOUTH CENTRAL NEBRASKA...

CITY           SKY/WX    TMP DP  RH WIND       PRES   REMARKS
GRAND ISLAND   LGT RAIN  49  31  49 W12       29.73F
HASTINGS       CLOUDY    51  24  34 W9        29.74F
KEARNEY        CLOUDY    52  27  37 W15       29.75F
ORD            LGT RAIN  46  38  73 W20G32    29.71R
YORK           LGT RAIN  50  28  43 W15       29.72S
AURORA         CLOUDY    51  28  41 W10       29.72S
LEXINGTON      CLOUDY    51  29  42 W12       29.78S
HOLDREGE       CLOUDY    52  24  33 W14G20    29.77S
HEBRON         CLOUDY    54  22  29 W10G18    29.75S

...NEBRASKA PANHANDLE...

CITY           SKY/WX    TMP DP  RH WIND       PRES   REMARKS
CHADRON        MOCLDY    45  34  65 NW23G37   29.87R
ALLIANCE       CLOUDY    43  34  70 NW21      29.89R
SCOTTSBLUFF    LGT RAIN  42  34  73 NW24G37   29.97R
SIDNEY         MOCLDY    50  26  39 NW26G35   29.92R

...WESTERN AND NORTH CENTRAL NEBRASKA...

CITY           SKY/WX    TMP DP  RH WIND       PRES   REMARKS
VALENTINE      CLOUDY    47  34  60 W13       29.72S
AINSWORTH      LGT RAIN  44  38  82 W6        29.72S
ONEILL         CLOUDY    50  34  53 W15G25    29.66S
BROKEN BOW     CLOUDY    51  33  50 W12       29.73F
IMPERIAL       CLOUDY    46  31  55 W14       29.87S
NORTH PLATTE   CLOUDY    46  27  47 W14       29.81R
MCCOOK         CLOUDY    48  34  58 W14       29.85R

...EASTERN NEBRASKA...

CITY           SKY/WX    TMP DP  RH WIND       PRES   REMARKS
NORFOLK        CLOUDY    51  31  46 SW12      29.63F
SO SIOUX CITY  CLOUDY    47  33  58 SW5       29.62F
TEKAMAH        CLOUDY    48  35  60 SW7       29.65F
COLUMBUS       CLOUDY    50  28  43 W12       29.68F
ALBION         CLOUDY    50  29  45 W3        29.67F
OMAHA EPPLEY   CLOUDY    52  30  43 W7        29.67F
MILLARD        CLOUDY    54  31  42 W7        29.67F
LINCOLN        CLOUDY    53  28  38 W8        29.70F
NEBRASKA CITY  MOCLDY    53  22  29 W9        29.70R
BEATRICE       CLOUDY    53  27  37 W16G23    29.72S
FALLS CITY     MOCLDY    52  28  39 SW12      29.71F

...NORTHERN KANSAS...

CITY           SKY/WX    TMP DP  RH WIND       PRES   REMARKS
GOODLAND       CLOUDY    47  31  53 N15G23    29.94R
HILL CITY      CLOUDY    57  22  25 NW18G26   29.85R
NORTON         DRIZZLE   48  36  61 W17G24    29.82F
PHILLIPSBURG   CLEAR     57  25  28 W15G23    29.81F
SMITH CENTER   LGT RAIN  52  27  37 W13       29.78F
BELOIT         MOCLDY    57  21  24 W13       29.78S
HAYS           CLOUDY    57  21  24 W10       29.84R
RUSSELL        CLOUDY    57  24  28 W13       29.80F
CONCORDIA      MOCLDY    57  24  28 W17       29.76S
SALINA         CLOUDY    60  27  28 W15       29.79F
TOPEKA         CLOUDY    57  28  33 W9        29.76F



USA.gov is the U.S. government's official web portal to all federal, state and local government web resources and services.